TRA542 EDDH-EHEH

Flight info

Callsign TRA542
Flight time N/A
Altitude 24000
Route HABFU1G/33 HABFU Y348 MAWEQ Z718 SUVOX/N0353F200 Z850 PISAP T883 ROTEK
Aircraft A20N/M-SDE2E3FGHIRWXY/LB1

Departure

Time N/A
Airport Hamburg Helmut Schmidt Airport (EDDH)

Arrival

Time 2026-04-30 18:13
Airport Eindhoven Airport (EHEH)
Time Latitude Longitude Altitude Speed Heading
2026-04-30 17:39 53.07889 9.20709 24412 ft 437 kts 187°
2026-04-30 17:41 52.84962 9.08045 24415 ft 440 kts 206°
2026-04-30 17:42 52.79565 9.03310 24415 ft 439 kts 206°
2026-04-30 17:42 52.72067 8.94487 24409 ft 440 kts 217°
2026-04-30 17:43 52.67216 8.88309 24411 ft 440 kts 217°
2026-04-30 17:44 52.60782 8.80072 24409 ft 439 kts 217°
2026-04-30 17:44 52.53524 8.70811 24402 ft 439 kts 217°
2026-04-30 17:46 52.41502 8.55563 24398 ft 436 kts 216°
2026-04-30 17:47 52.31903 8.43465 24393 ft 435 kts 216°
2026-04-30 17:48 52.22337 8.31363 24384 ft 434 kts 222°
2026-04-30 17:48 52.18071 8.18549 24376 ft 437 kts 253°
2026-04-30 17:49 52.14471 7.99649 24370 ft 435 kts 252°
2026-04-30 17:50 52.10835 7.80898 24370 ft 434 kts 252°
2026-04-30 17:51 52.08102 7.66929 24375 ft 434 kts 252°
2026-04-30 17:52 52.05338 7.52897 24374 ft 433 kts 252°
2026-04-30 17:53 52.00719 7.29680 24361 ft 432 kts 251°
2026-04-30 17:54 51.96714 7.11342 24350 ft 432 kts 241°
2026-04-30 17:55 51.89669 6.95733 23931 ft 431 kts 230°
2026-04-30 17:56 51.83824 6.78838 21409 ft 422 kts 243°
2026-04-30 17:57 51.80072 6.66267 19776 ft 409 kts 243°
2026-04-30 17:58 51.76377 6.53967 17787 ft 407 kts 242°
2026-04-30 17:59 51.71540 6.37957 15713 ft 387 kts 242°
2026-04-30 18:00 51.66937 6.22831 13671 ft 373 kts 242°
2026-04-30 18:00 51.63563 6.11797 12204 ft 361 kts 241°
2026-04-30 18:01 51.61493 6.04524 11242 ft 351 kts 232°
2026-04-30 18:02 51.56262 5.96768 10141 ft 325 kts 213°
2026-04-30 18:02 51.51153 5.90538 9530 ft 294 kts 213°
2026-04-30 18:03 51.46790 5.83756 8449 ft 287 kts 221°
2026-04-30 18:04 51.42620 5.77004 7390 ft 281 kts 220°
2026-04-30 18:05 51.37185 5.68243 5959 ft 273 kts 219°
2026-04-30 18:06 51.33080 5.58352 4563 ft 275 kts 249°
2026-04-30 18:07 51.30842 5.46813 3992 ft 248 kts 248°
2026-04-30 18:08 51.29253 5.38796 3820 ft 254 kts 248°
2026-04-30 18:09 51.31093 5.28582 2445 ft 254 kts 310°
2026-04-30 18:10 51.36147 5.27518 1910 ft 172 kts 42°
2026-04-30 18:11 51.39565 5.31382 1194 ft 141 kts 43°
2026-04-30 18:11 51.42031 5.34051 686 ft 143 kts 44°
2026-04-30 18:12 51.44518 5.36890 89 ft 146 kts 41°
2026-04-30 18:13 51.45538 5.38058 74 ft 9 kts 78°
2026-04-30 18:13 51.45830 5.38366 70 ft 25 kts 31°
2026-04-30 18:14 51.45823 5.38706 69 ft 0 kts 121°
2026-04-30 18:15 51.45818 5.38719 74 ft 0 kts 121°
2026-04-30 18:15 51.45803 5.38755 71 ft 7 kts 129°
2026-04-30 18:16 51.45861 5.38911 69 ft 16 kts 34°
2026-04-30 18:16 51.45854 5.39059 72 ft 1 kts 124°
2026-04-30 18:17 51.45854 5.39060 74 ft 0 kts 124°